Weather History for Valparaiso, FL

Change the Weather History Date:

Tuesday, November 19, 2013

  Actual Average Record
Temperature  
Mean Temperature 57 °F -  
Max Temperature 67 °F 71 °F 80 °F (1985)
Min Temperature 47 °F 46 °F 28 °F (1949)
Degree Days  
Heating Degree Days 8    
Growing Degree Days 7 (Base 50)    
Moisture  
Dew Point 41 °F    
Average Humidity 59    
Maximum Humidity 78    
Minimum Humidity 39    
Precipitation  
Precipitation 0.00 in - - ()
Sea Level Pressure  
Sea Level Pressure 30.07 in    
Wind  
Wind Speed 9 mph (NNE)    
Max Wind Speed 16 mph    
Max Gust Speed -    
Visibility 10 miles    
Events      
Averages and records for this station are not official NWS values.
T = Trace of Precipitation, MM = Missing Value Source: NWS Daily Summary

Daily Weather History Graph

Daily Weather History Graph

Search for Another Location

Airport:

Trip Planner

Search our weather history database for the weather conditions in past years. The results will help you decide how hot, cold, wet, or windy it might be!

Date:

Astronomy

Nov. 19, 2013 Rise Set
Actual Time 6:15 AM CST 4:47 PM CST
Civil Twilight 5:49 AM CST 5:12 PM CST
Nautical Twilight 5:20 AM CST 5:42 PM CST
Astronomical Twilight 4:52 AM CST 6:10 PM CST
Moon 6:39 PM CST (11/19) 7:53 AM CST (11/19)
Length of Visible Light 11h 22m
Length of Day
10h 31m
Waning Gibbous, 96% of the Moon is Illuminated
Nov 19
Waning Gibbous
Nov 25
Last Quarter
Dec 2
New
Dec 9
First Quarter
Dec 17
Full

Hourly Weather History & Observations

Time (CST) Temp. Dew Point Humidity Pressure Visibility Wind Dir Wind Speed Gust Speed Precip Events Conditions
12:55 AM 56.3 °F 41.2 °F 57% 30.05 in 10.0 mi North 10.4 mph - N/A   Mostly Cloudy
1:55 AM 54.9 °F 39.9 °F 57% 30.06 in 10.0 mi NNE 9.2 mph - N/A   Mostly Cloudy
2:55 AM 52.3 °F 40.3 °F 64% 30.07 in 10.0 mi NNE 8.1 mph - N/A   Mostly Cloudy
3:55 AM 49.6 °F 40.5 °F 71% 30.07 in 10.0 mi North 6.9 mph - N/A   Scattered Clouds
4:55 AM 49.1 °F 40.1 °F 71% 30.09 in 10.0 mi North 6.9 mph - N/A   Mostly Cloudy
5:55 AM 47.7 °F 39.7 °F 74% 30.10 in 10.0 mi North 6.9 mph - N/A   Mostly Cloudy
6:55 AM 48.6 °F 39.4 °F 71% 30.11 in 10.0 mi North 8.1 mph - N/A   Scattered Clouds
7:55 AM 52.3 °F 39.4 °F 61% 30.12 in 10.0 mi NNE 13.8 mph - N/A   Scattered Clouds
8:55 AM 55.6 °F 38.5 °F 53% 30.12 in 10.0 mi NNE 16.1 mph - N/A   Scattered Clouds
9:55 AM 58.5 °F 37.6 °F 46% 30.11 in 10.0 mi NNE 12.7 mph - N/A   Scattered Clouds
10:55 AM 61.3 °F 38.8 °F 43% 30.09 in 10.0 mi NE 10.4 mph - N/A   Scattered Clouds
11:55 AM 63.9 °F 39.7 °F 41% 30.05 in 10.0 mi ENE 9.2 mph - N/A   Scattered Clouds
12:55 PM 66.4 °F 40.6 °F 39% 30.04 in 10.0 mi NNE 8.1 mph - N/A   Scattered Clouds
1:55 PM 67.5 °F 41.5 °F 39% 30.03 in 10.0 mi NNE 8.1 mph - N/A   Scattered Clouds
2:55 PM 67.1 °F 41.0 °F 39% 30.02 in 10.0 mi NNE 8.1 mph - N/A   Scattered Clouds
3:55 PM 63.9 °F 42.1 °F 45% 30.05 in 10.0 mi North 6.9 mph - N/A   Scattered Clouds
4:55 PM 59.5 °F 43.9 °F 56% 30.04 in 10.0 mi NNE 5.8 mph - N/A   Mostly Cloudy
5:55 PM 56.8 °F 43.9 °F 62% 30.06 in 10.0 mi NNE 4.6 mph - N/A   Mostly Cloudy
6:55 PM 55.2 °F 43.7 °F 65% 30.08 in 10.0 mi NNW 6.9 mph - N/A   Scattered Clouds
7:55 PM 53.1 °F 43.3 °F 70% 30.08 in 10.0 mi North 3.5 mph - N/A   Partly Cloudy
8:57 PM 52.5 °F 43.3 °F 71% 30.09 in 10.0 mi NNE 5.8 mph - N/A   Mostly Cloudy
9:55 PM 50.9 °F 43.0 °F 74% 30.09 in 10.0 mi North 5.8 mph - N/A   Scattered Clouds
10:56 PM 49.3 °F 42.4 °F 77% 30.08 in 10.0 mi North 8.1 mph - N/A   Scattered Clouds
11:56 PM 48.7 °F 42.3 °F 78% 30.07 in 10.0 mi NNE 8.1 mph - N/A   Scattered Clouds